RADUGA 30 [-]

Last updated on Oct. 27, 2020, 5:53 a.m. UTC

1 22836U 93062A   20299.82728262 -.00000085  00000-0  00000-0 0  9994
2 22836  14.8506   3.3958 0003895 329.4539  71.2798  1.00261344 25344
UTC
Height (km)
Latitude
Longitude
Inclination
Orbital Period
UTC large
Height (km)
Speed (km/s)
/
Latitude / Longitude
Inclination (degrees)
Orbital Period (minutes)
Azimuth
Elevation
Range (km)
Doppler Factor
iOS Compass Heading
iOS Angle

Next 30 passes for location: Hong Kong

Rise time Rise Azimuth (degrees) Set time Set Azimuth (degrees) Duration Max altitude (degrees)

No matching passes for this satellites